FW2545 Weather Reports


Display with metric or nautical units.
time (UTC)temp
F
wind
direction
speed
MPH
gust
MPH
rain 1hr
in
rain 24hr
in
rain mn
in
humidity
%
barometer
mb
20260901174536 66 333 4.0 9.0 0.00 0.00 0.00 65 1012.2
20260901171641 63 329 4.0 10.0 0.00 0.00 0.00 68 1012.2
20260901170143 63 329 4.0 10.0 0.00 0.00 0.00 68 1012.2
20260901163036 61 336 3.0 7.0 0.00 0.00 0.00 71 1012.3
20260901161532 58 22 1.0 6.0 0.00 0.00 0.00 72 1012.3
20260901160044 56 120 0.0 4.0 0.00 0.00 0.00 71 1012.3
20260901154530 55 164 0.0 2.0 0.00 0.00 0.00 71 1012.2
20260901153036 53 292 0.0 0.0 0.00 0.00 0.00 72 1012.1
20260901144555 49 292 0.0 0.0 0.00 0.00 0.00 74 1011.8
20260901143032 49 281 0.0 2.0 0.00 0.00 0.00 74 1011.7
20260901141536 48 209 0.0 3.0 0.00 0.00 0.00 75 1011.7
20260901140037 47 208 0.0 3.0 0.00 0.00 0.00 74 1011.5
20260901134532 49 180 0.0 1.0 0.00 0.00 0.00 70 1011.2
20260901124530 50 202 0.0 3.0 0.00 0.00 0.00 69 1011.0
20260901123031 49 202 1.0 4.0 0.00 0.00 0.00 68 1010.9
20260901120034 49 222 0.0 3.0 0.00 0.00 0.00 67 1011.0
20260901114531 49 218 0.0 2.0 0.00 0.00 0.00 65 1011.1
20260901113030 49 238 1.0 4.0 0.00 0.00 0.00 65 1011.0
20260901111531 49 247 1.0 2.0 0.00 0.00 0.00 65 1010.9
20260901110030 49 255 2.0 3.0 0.00 0.00 0.00 65 1010.9
20260901104536 50 172 0.0 3.0 0.00 0.00 0.00 63 1011.0
20260901103037 50 274 0.0 3.0 0.00 0.00 0.00 61 1011.1
20260901101534 52 256 0.0 3.0 0.00 0.00 0.00 57 1011.0
20260901094535 52 203 1.0 4.0 0.00 0.00 0.00 58 1011.1
20260901093034 52 236 1.0 4.0 0.00 0.00 0.00 59 1011.1
20260901091531 51 247 2.0 4.0 0.00 0.00 0.00 59 1011.1
20260901090037 53 247 1.0 4.0 0.00 0.00 0.00 57 1011.1
20260901084643 53 227 1.0 4.0 0.00 0.00 0.00 55 1011.2
20260901083030 53 197 2.0 6.0 0.00 0.00 0.00 56 1011.4
20260901081536 53 219 1.0 4.0 0.00 0.00 0.00 56 1011.3
20260901080029 53 225 1.0 3.0 0.00 0.00 0.00 55 1011.2
20260901074640 54 220 2.0 5.0 0.00 0.00 0.00 54 1011.4
20260901073109 55 242 0.0 4.0 0.00 0.00 0.00 54 1011.3
20260901071529 55 238 1.0 3.0 0.00 0.00 0.00 54 1011.3
20260901070033 55 229 1.0 4.0 0.00 0.00 0.00 53 1011.3
20260901064531 56 219 1.0 2.0 0.00 0.00 0.00 52 1011.4
20260901061536 57 209 1.0 4.0 0.00 0.00 0.00 51 1011.6
20260901060036 56 199 2.0 5.0 0.00 0.00 0.00 52 1011.6
20260901054533 57 236 0.0 4.0 0.00 0.00 0.00 52 1011.7
20260901053107 58 255 0.0 2.0 0.00 0.00 0.00 49 1011.7
20260901051533 59 201 1.0 6.0 0.00 0.00 0.00 49 1011.8
20260901050034 59 193 2.0 5.0 0.00 0.00 0.00 50 1011.7
20260901044642 60 189 2.0 4.0 0.00 0.00 0.00 51 1011.6
20260901043029 60 198 1.0 4.0 0.00 0.00 0.00 50 1011.6
20260901041532 61 228 2.0 5.0 0.00 0.00 0.00 51 1011.6
20260901040146 61 220 0.0 3.0 0.00 0.00 0.00 51 1011.5
20260901034529 60 217 0.0 3.0 0.00 0.00 0.00 55 1011.4
20260901031642 62 292 1.0 4.0 0.00 0.00 0.00 53 1011.0
20260901030033 63 329 0.0 4.0 0.00 0.00 0.00 53 1010.9
20260901021536 69 45 1.0 3.0 0.00 0.00 0.00 47 1010.5
20260901014536 76 36 2.0 5.0 0.00 0.00 0.00 39 1010.5
20260901013032 77 53 1.0 5.0 0.00 0.00 0.00 35 1010.5
20260901011529 78 41 3.0 8.0 0.00 0.00 0.00 33 1010.5
20260901010031 79 28 4.0 10.0 0.00 0.00 0.00 32 1010.6
20260901004535 80 35 4.0 10.0 0.00 0.00 0.00 31 1010.8
20260901001535 82 38 4.0 12.0 0.00 0.00 0.00 29 1010.9
20260901000034 83 28 5.0 14.0 0.00 0.00 0.00 29 1011.1
20260831234536 85 45 4.0 10.0 0.00 0.00 0.00 28 1011.3
20260831233028 85 55 4.0 10.0 0.00 0.00 0.00 28 1011.4
20260831231530 85 61 3.0 9.0 0.00 0.00 0.00 28 1011.6
20260831230034 86 36 5.0 11.0 0.00 0.00 0.00 28 1011.8
20260831224537 86 42 4.0 13.0 0.00 0.00 0.00 28 1012.1
20260831223036 86 23 4.0 12.0 0.00 0.00 0.00 28 1012.3
20260831221531 87 23 5.0 12.0 0.00 0.00 0.00 28 1012.5
20260831220143 88 41 5.0 13.0 0.00 0.00 0.00 28 1012.7
20260831213144 87 63 2.0 10.0 0.00 0.00 0.00 29 1013.2
20260831211532 83 60 4.0 12.0 0.00 0.00 0.00 32 1013.4
20260831210031 81 39 5.0 11.0 0.00 0.00 0.00 33 1013.6
20260831203034 79 18 4.0 7.0 0.00 0.00 0.00 35 1014.1
20260831200031 77 42 4.0 10.0 0.00 0.00 0.00 38 1014.7
20260831194534 77 29 5.0 15.0 0.00 0.00 0.00 38 1014.9
20260831191530 76 44 6.0 12.0 0.00 0.00 0.00 40 1015.4
20260831190147 74 52 5.0 14.0 0.00 0.00 0.00 43 1015.7
20260831184531 72 33 5.0 12.0 0.00 0.00 0.00 46 1016.0
20260831183037 71 18 5.0 13.0 0.00 0.00 0.00 48 1016.3
20260831181530 70 30 2.0 9.0 0.00 0.00 0.00 52 1016.5
20260831180031 68 5 3.0 8.0 0.00 0.00 0.00 55 1016.8